Flag for United Kingdom Weather past 2 weeks in Stornoway, Scotland, United Kingdom

Now
79 °F

Passing clouds.


Feels Like: 80 °F
Forecast: 61 / 73 °F
Wind: 6 mph from Southeast

Location: Stornoway

Current Time: Jul 24, 2014 at 5:17:06 PM

Latest Report: Jul 24, 2014 at 4:50 PM


Visibility: N/A

Pressure: 30.18 "Hg

Humidity: 58%

Dew point: 63 °F

Location of StornowayLocation

Historic Weather in Stornoway — Graph

°F

Stornoway temperature yesterday

Maximum temperature yesterday: 77 °F (at 3:20 PM)
Minimum temperature yesterday: 57 °F (at 3:20 AM)
Average temperature yesterday: 67 °F

Past Weeks' High & Low Weather Summary

 TemperatureHumidityPressure
High81 °F (Jul 24, 3:50 PM)100% (Jul 12, 4:20 PM)30.27 "Hg (Jul 12, 4:20 PM)
Low45 °F (Jul 10, 3:20 AM)51% (Jul 24, 3:50 PM)29.47 "Hg (Jul 14, 5:50 PM)
Average60 °F81%29.97 "Hg
* Reported Jul 9 4:20 PM — Jul 24 4:20 PM, Stornoway, Weather by CustomWeather, © 2014

Note: Actual official high and low records may vary slightly from our data, if they occured in-between our weather recording intervals... More about our weather records

Advertising

Stornoway weather history for previous 24 hours

 ConditionsComfort  
Time TempWeatherWind HumidityBarometerVisibility
4:20 PM
Jul 24
79 °FPassing clouds.6 mph51%30.18 "HgN/A
3:50 PM81 °FPassing clouds.6 mph51%30.18 "HgN/A
3:20 PM79 °FPassing clouds.7 mph54%30.18 "HgN/A
2:50 PM77 °FPassing clouds.7 mph57%30.18 "HgN/A
2:20 PM75 °FPassing clouds.7 mph57%30.18 "HgN/A
1:50 PM77 °FPassing clouds.8 mph57%30.18 "HgN/A
1:20 PM77 °FPassing clouds.7 mph54%30.18 "HgN/A
12:50 PM75 °FPassing clouds.7 mph61%30.18 "HgN/A
12:20 PM75 °FPassing clouds.7 mph61%30.18 "HgN/A
11:50 AM75 °FPassing clouds.7 mph61%30.18 "HgN/A
11:20 AM73 °FPassing clouds.8 mph65%30.18 "HgN/A
10:50 AM72 °FPassing clouds.7 mph69%30.18 "HgN/A
10:20 AM72 °FSunny.7 mph69%30.18 "Hg10 mi
9:50 AM70 °FSunny.6 mph73%30.18 "Hg10 mi
9:20 AM70 °FSunny.3 mph73%30.18 "Hg10 mi
8:50 AM68 °FPassing clouds.2 mph78%30.18 "HgN/A
8:20 AM64 °FPassing clouds.5 mph83%30.18 "HgN/A
7:50 AM64 °FPassing clouds.3 mph83%30.18 "HgN/A
7:20 AM63 °FSunny.No wind94%30.18 "Hg10 mi
6:50 AM59 °FSunny.No wind94%30.18 "Hg10 mi
6:20 AM59 °FSunny.No wind88%30.18 "Hg10 mi
5:50 AM57 °FHaze.2 mph88%30.18 "Hg3 mi
5:20 AM55 °FHaze.2 mph88%30.18 "Hg2 mi
4:50 AM55 °FHaze.No wind88%30.18 "Hg3 mi
4:20 AM55 °FCool.No wind88%30.18 "Hg4 mi
3:50 AM55 °FCool.No wind88%30.18 "Hg4 mi
3:20 AM57 °FCool.2 mph88%30.18 "Hg5 mi
2:50 AM57 °FCool.No wind88%30.18 "HgN/A
2:20 AM57 °FCool.2 mph88%30.18 "Hg6 mi
1:50 AM57 °FCool.No wind88%30.18 "Hg5 mi
1:20 AM61 °FPassing clouds.No wind83%30.18 "Hg6 mi
12:50 AM61 °FCool.No wind83%30.18 "HgN/A
12:20 AM61 °FCool.No wind83%30.18 "HgN/A
11:50 PM
Jul 23
61 °FCool.No wind83%30.18 "HgN/A
11:20 PM64 °FMild.No wind83%30.18 "HgN/A
10:50 PM64 °FMild.3 mph83%30.18 "HgN/A
10:20 PM64 °FMild.No wind83%30.18 "HgN/A
9:50 PM66 °FMild.No wind78%30.18 "Hg4 mi
9:20 PM70 °FHaze.2 mph73%30.18 "Hg3 mi
8:50 PM68 °FMild.2 mph78%30.18 "HgN/A
8:20 PM68 °FPassing clouds.3 mph83%30.18 "HgN/A
7:50 PM70 °FPassing clouds.3 mph73%30.18 "HgN/A
7:20 PM72 °FPassing clouds.No wind69%30.18 "HgN/A
6:50 PM72 °FPassing clouds.8 mph69%30.18 "HgN/A
6:20 PM72 °FPassing clouds.8 mph69%30.18 "HgN/A
5:50 PM72 °FPassing clouds.9 mph73%30.18 "HgN/A
5:20 PM75 °FPassing clouds.7 mph61%30.18 "HgN/A
Weather by CustomWeather, © 2014

See weather overviewHow to use our weather pages